Time,TemperatureF,DewpointF,PressureIn,WindDirection,WindDirectionDegrees,WindSpeedMPH,WindSpeedGustMPH,Humidity,HourlyPrecipIn,Conditions,Clouds,dailyrainin,SoftwareType,DateUTC
2013-05-17 00:03:00,62.2,55.0,29.44,SSE,158,0.9,0.9,77,0.00,,OVC025,0.00,VWS V14.01,2013-05-17 07:03:00,
2013-05-17 00:08:00,62.2,55.0,29.44,SSE,158,0.9,0.9,77,0.00,,OVC025,0.00,VWS V14.01,2013-05-17 07:08:00,
2013-05-17 00:13:00,62.2,55.3,29.44,SSE,158,0.9,0.9,78,0.00,,OVC025,0.00,VWS V14.01,2013-05-17 07:13:00,
2013-05-17 00:18:00,62.2,55.0,29.41,SSE,158,0.9,0.9,77,0.00,,OVC025,0.00,VWS V14.01,2013-05-17 07:18:00,
2013-05-17 00:23:00,62.1,55.1,29.41,SSE,158,0.9,0.9,78,0.00,,OVC025,0.00,VWS V14.01,2013-05-17 07:23:00,
2013-05-17 00:28:00,62.1,55.1,29.41,SSE,158,0.9,0.9,78,0.00,,OVC025,0.00,VWS V14.01,2013-05-17 07:28:00,
2013-05-17 00:33:00,62.1,55.1,29.44,SSE,158,0.9,0.9,78,0.00,,OVC025,0.00,VWS V14.01,2013-05-17 07:33:00,
2013-05-17 00:38:00,62.1,55.1,29.44,SSE,158,0.9,0.9,78,0.00,,OVC025,0.00,VWS V14.01,2013-05-17 07:38:00,
2013-05-17 00:43:00,62.1,54.8,29.44,SSE,158,0.9,0.9,77,0.00,,OVC025,0.00,VWS V14.01,2013-05-17 07:43:00,
2013-05-17 00:48:00,61.9,54.6,29.44,SSE,158,0.9,0.9,77,0.00,,OVC025,0.00,VWS V14.01,2013-05-17 07:48:00,
2013-05-17 00:53:00,61.9,54.6,29.44,SSE,158,0.9,0.9,77,0.00,,OVC025,0.00,VWS V14.01,2013-05-17 07:53:00,
2013-05-17 00:58:00,61.9,54.6,29.44,SSE,158,0.9,0.9,77,0.00,,OVC025,0.00,VWS V14.01,2013-05-17 07:58:00,
2013-05-17 01:03:00,61.9,54.6,29.41,SSE,158,0.9,0.9,77,0.00,,OVC027,0.00,VWS V14.01,2013-05-17 08:03:00,
2013-05-17 01:08:00,61.9,54.6,29.41,SSE,158,0.9,0.9,77,0.00,,OVC027,0.00,VWS V14.01,2013-05-17 08:08:00,
2013-05-17 01:13:00,61.7,54.4,29.41,SSE,158,0.9,0.9,77,0.00,,OVC027,0.00,VWS V14.01,2013-05-17 08:13:00,
2013-05-17 01:18:00,61.7,54.4,29.41,SSE,158,0.9,0.9,77,0.00,,OVC027,0.00,VWS V14.01,2013-05-17 08:18:00,
2013-05-17 01:23:00,61.7,54.8,29.41,SSE,158,0.9,0.9,78,0.00,,OVC027,0.00,VWS V14.01,2013-05-17 08:23:00,
2013-05-17 01:28:00,61.7,54.8,29.41,SSE,158,0.9,0.9,78,0.00,,OVC027,0.00,VWS V14.01,2013-05-17 08:28:00,
2013-05-17 01:33:00,61.7,55.1,29.41,SSE,158,0.9,0.9,79,0.00,,OVC027,0.00,VWS V14.01,2013-05-17 08:33:00,
2013-05-17 01:38:00,61.7,55.1,29.41,SSE,158,0.9,0.9,79,0.00,,OVC027,0.00,VWS V14.01,2013-05-17 08:38:00,
2013-05-17 01:43:00,61.7,55.5,29.41,SSE,158,0.9,0.9,80,0.00,,OVC027,0.00,VWS V14.01,2013-05-17 08:43:00,
2013-05-17 01:48:00,61.7,55.1,29.38,SSE,158,0.9,0.9,79,0.00,,OVC027,0.00,VWS V14.01,2013-05-17 08:48:00,
2013-05-17 01:53:00,61.7,55.5,29.38,SSE,158,0.9,0.9,80,0.00,,OVC027,0.00,VWS V14.01,2013-05-17 08:53:00,
2013-05-17 01:58:00,61.5,55.3,29.38,SSE,158,0.9,0.9,80,0.00,,OVC027,0.00,VWS V14.01,2013-05-17 08:58:00,
2013-05-17 02:03:00,61.5,55.3,29.38,SSE,158,0.9,0.9,80,0.00,,OVC029,0.00,VWS V14.01,2013-05-17 09:03:00,
2013-05-17 02:08:00,61.5,55.6,29.38,SSE,158,0.9,0.9,81,0.00,,OVC029,0.00,VWS V14.01,2013-05-17 09:08:00,
2013-05-17 02:13:00,61.5,56.0,29.38,SSE,158,0.9,0.9,82,0.00,,OVC029,0.00,VWS V14.01,2013-05-17 09:13:00,
2013-05-17 02:18:00,61.3,55.8,29.38,SSE,158,0.9,0.9,82,0.00,,OVC029,0.00,VWS V14.01,2013-05-17 09:18:00,
2013-05-17 02:23:00,61.2,56.3,29.38,SSE,158,0.9,0.9,84,0.00,,OVC029,0.00,VWS V14.01,2013-05-17 09:23:00,
2013-05-17 02:28:00,61.2,56.0,29.38,SSE,158,0.9,0.9,83,0.00,,OVC029,0.00,VWS V14.01,2013-05-17 09:28:00,
2013-05-17 02:33:00,61.0,55.8,29.38,SSE,158,0.9,0.9,83,0.00,,OVC031,0.00,VWS V14.01,2013-05-17 09:33:00,
2013-05-17 02:38:00,61.0,55.8,29.38,SSE,158,0.9,0.9,83,0.00,,OVC031,0.00,VWS V14.01,2013-05-17 09:38:00,
2013-05-17 02:43:00,60.8,55.6,29.38,SSE,158,0.9,0.9,83,0.00,,OVC031,0.00,VWS V14.01,2013-05-17 09:43:00,
2013-05-17 02:48:00,60.8,55.6,29.38,SSE,158,0.9,0.9,83,0.00,,OVC031,0.00,VWS V14.01,2013-05-17 09:48:00,
2013-05-17 02:53:00,60.8,55.9,29.38,SSE,158,0.9,0.9,84,0.00,,OVC031,0.00,VWS V14.01,2013-05-17 09:53:00,
2013-05-17 02:58:00,60.6,56.1,29.38,SSE,158,0.9,0.9,85,0.00,,OVC031,0.00,VWS V14.01,2013-05-17 09:58:00,
2013-05-17 03:03:00,60.4,55.9,29.38,SSE,158,0.9,0.9,85,0.00,,OVC029,0.00,VWS V14.01,2013-05-17 10:03:00,
2013-05-17 03:08:00,60.4,56.2,29.38,SSE,158,0.9,0.9,86,0.00,,OVC029,0.00,VWS V14.01,2013-05-17 10:08:00,
2013-05-17 03:13:00,60.4,56.2,29.38,SSE,158,0.9,0.9,86,0.00,,OVC029,0.00,VWS V14.01,2013-05-17 10:13:00,
2013-05-17 03:18:00,60.4,55.9,29.38,SSE,158,0.9,0.9,85,0.00,,OVC029,0.00,VWS V14.01,2013-05-17 10:18:00,
2013-05-17 03:23:00,60.4,55.9,29.38,SSE,158,0.9,0.9,85,0.00,,OVC029,0.00,VWS V14.01,2013-05-17 10:23:00,
2013-05-17 03:28:00,60.4,55.6,29.38,SSE,158,0.9,0.9,84,0.00,,OVC029,0.00,VWS V14.01,2013-05-17 10:28:00,
2013-05-17 03:33:00,60.4,55.3,29.38,SSE,158,0.9,0.9,83,0.00,,OVC029,0.00,VWS V14.01,2013-05-17 10:33:00,
2013-05-17 03:38:00,60.4,55.3,29.38,SSE,158,0.9,0.9,83,0.00,,OVC029,0.00,VWS V14.01,2013-05-17 10:38:00,
2013-05-17 03:43:00,60.4,55.3,29.38,SSE,158,0.9,0.9,83,0.00,,OVC029,0.00,VWS V14.01,2013-05-17 10:43:00,
2013-05-17 03:48:00,60.4,54.9,29.38,SSE,158,0.9,0.9,82,0.00,,OVC029,0.00,VWS V14.01,2013-05-17 10:48:00,
2013-05-17 03:53:00,60.4,54.6,29.38,SSE,158,0.9,0.9,81,0.00,,OVC029,0.00,VWS V14.01,2013-05-17 10:53:00,
2013-05-17 03:58:00,60.4,54.6,29.38,SSE,158,0.9,0.9,81,0.00,,OVC029,0.00,VWS V14.01,2013-05-17 10:58:00,
2013-05-17 04:03:00,60.4,54.2,29.38,SSE,158,0.9,0.9,80,0.00,,OVC016,0.00,VWS V14.01,2013-05-17 11:03:00,
2013-05-17 04:08:00,60.4,54.2,29.38,SSE,158,0.9,0.9,80,0.00,,OVC016,0.00,VWS V14.01,2013-05-17 11:08:00,
2013-05-17 04:13:00,60.4,54.2,29.38,SSE,158,0.9,0.9,80,0.00,,OVC016,0.00,VWS V14.01,2013-05-17 11:13:00,
2013-05-17 04:18:00,60.4,54.2,29.38,SSE,158,0.9,0.9,80,0.00,,OVC016,0.00,VWS V14.01,2013-05-17 11:18:00,
2013-05-17 04:23:00,60.4,53.9,29.38,SSE,158,0.9,0.9,79,0.00,,OVC016,0.00,VWS V14.01,2013-05-17 11:23:00,
2013-05-17 04:28:00,60.4,53.9,29.38,SSE,158,0.9,0.9,79,0.00,,OVC016,0.00,VWS V14.01,2013-05-17 11:28:00,
2013-05-17 04:33:00,60.3,53.7,29.38,SSE,158,0.9,0.9,79,0.00,,OVC016,0.00,VWS V14.01,2013-05-17 11:33:00,
2013-05-17 04:38:00,60.3,53.7,29.38,SSE,158,0.9,0.9,79,0.00,,OVC016,0.00,VWS V14.01,2013-05-17 11:38:00,
2013-05-17 04:43:00,60.1,53.6,29.38,SSE,158,0.9,0.9,79,0.00,,OVC016,0.00,VWS V14.01,2013-05-17 11:43:00,
2013-05-17 04:48:00,60.1,53.6,29.41,SSE,158,0.9,0.9,79,0.00,,OVC016,0.00,VWS V14.01,2013-05-17 11:48:00,
2013-05-17 04:53:00,60.1,53.6,29.41,SSE,158,0.9,0.9,79,0.00,,OVC016,0.00,VWS V14.01,2013-05-17 11:53:00,
2013-05-17 04:58:00,60.1,53.9,29.41,SSE,158,0.9,0.9,80,0.00,,OVC016,0.00,VWS V14.01,2013-05-17 11:58:00,
2013-05-17 05:03:00,60.1,53.6,29.38,SSE,158,0.9,0.9,79,0.00,,OVC016,0.00,VWS V14.01,2013-05-17 12:03:00,
2013-05-17 05:08:00,60.1,53.6,29.38,SSE,158,0.9,0.9,79,0.00,,OVC016,0.00,VWS V14.01,2013-05-17 12:08:00,
2013-05-17 05:13:00,60.3,53.7,29.38,SSE,158,0.9,0.9,79,0.00,,OVC016,0.00,VWS V14.01,2013-05-17 12:13:00,
2013-05-17 05:18:00,60.3,53.7,29.38,SSE,158,0.9,0.9,79,0.00,,OVC016,0.00,VWS V14.01,2013-05-17 12:18:00,
2013-05-17 05:23:00,60.3,53.4,29.38,SSE,158,0.9,0.9,78,0.00,,OVC016,0.00,VWS V14.01,2013-05-17 12:23:00,
2013-05-17 05:28:00,60.4,53.6,29.38,SSE,158,0.9,0.9,78,0.00,,OVC016,0.00,VWS V14.01,2013-05-17 12:28:00,
2013-05-17 05:33:00,60.4,53.6,29.38,SSE,158,0.9,0.9,78,0.00,,OVC016,0.00,VWS V14.01,2013-05-17 12:33:00,
2013-05-17 05:38:00,60.4,53.6,29.38,SSE,158,0.9,0.9,78,0.00,,OVC016,0.00,VWS V14.01,2013-05-17 12:38:00,
2013-05-17 05:43:00,60.4,53.6,29.38,SSE,158,0.9,0.9,78,0.00,,OVC016,0.00,VWS V14.01,2013-05-17 12:43:00,
2013-05-17 05:48:00,60.4,53.2,29.41,SSE,158,0.9,0.9,77,0.00,,OVC016,0.00,VWS V14.01,2013-05-17 12:48:00,
2013-05-17 05:53:00,60.4,53.2,29.41,SSE,158,0.9,0.9,77,0.00,,OVC016,0.00,VWS V14.01,2013-05-17 12:53:00,
2013-05-17 05:58:00,60.4,53.2,29.41,SSE,158,0.9,0.9,77,0.00,,OVC016,0.00,VWS V14.01,2013-05-17 12:58:00,
2013-05-17 06:03:00,60.4,53.2,29.41,SSE,158,0.9,0.9,77,0.00,,OVC022,0.00,VWS V14.01,2013-05-17 13:03:00,
2013-05-17 06:08:00,60.6,53.0,29.41,SSE,158,0.9,0.9,76,0.00,,OVC022,0.00,VWS V14.01,2013-05-17 13:08:00,
2013-05-17 06:14:00,60.6,53.0,29.41,SSE,158,0.9,0.9,76,0.00,,OVC022,0.00,VWS V14.01,2013-05-17 13:14:00,
2013-05-17 06:19:00,60.6,53.0,29.44,SSE,158,0.9,0.9,76,0.00,,OVC022,0.00,VWS V14.01,2013-05-17 13:19:00,
2013-05-17 06:24:00,60.8,52.8,29.44,SSE,158,0.9,0.9,75,0.00,,OVC022,0.00,VWS V14.01,2013-05-17 13:24:00,
2013-05-17 06:28:00,60.8,52.8,29.44,SSE,158,0.9,0.9,75,0.00,,OVC022,0.00,VWS V14.01,2013-05-17 13:28:00,
2013-05-17 06:33:00,61.0,53.0,29.44,SSE,158,0.9,0.9,75,0.00,,OVC022,0.00,VWS V14.01,2013-05-17 13:33:00,
2013-05-17 06:38:00,61.0,53.0,29.44,SSE,158,0.9,0.9,75,0.00,,OVC022,0.00,VWS V14.01,2013-05-17 13:38:00,
2013-05-17 06:43:00,61.0,52.7,29.44,SSE,158,0.9,0.9,74,0.00,,OVC022,0.00,VWS V14.01,2013-05-17 13:43:00,
2013-05-17 06:48:00,61.2,52.8,29.44,SSE,158,0.9,0.9,74,0.00,,OVC022,0.00,VWS V14.01,2013-05-17 13:48:00,
2013-05-17 06:53:00,61.3,53.0,29.44,SSE,158,0.9,0.9,74,0.00,,OVC022,0.00,VWS V14.01,2013-05-17 13:53:00,
2013-05-17 06:59:00,61.3,52.6,29.44,SSE,158,0.9,0.9,73,0.00,,OVC022,0.00,VWS V14.01,2013-05-17 13:59:00,
2013-05-17 07:04:00,61.5,52.8,29.44,SSE,158,0.9,0.9,73,0.00,,OVC032,0.00,VWS V14.01,2013-05-17 14:04:00,
2013-05-17 07:09:00,61.7,53.0,29.44,SSE,158,0.9,0.9,73,0.00,,OVC032,0.00,VWS V14.01,2013-05-17 14:09:00,
2013-05-17 07:14:00,61.9,53.1,29.44,SSE,158,0.9,0.9,73,0.00,,OVC032,0.00,VWS V14.01,2013-05-17 14:14:00,
2013-05-17 07:19:00,62.1,53.7,29.44,SSE,158,0.9,0.9,74,0.00,,OVC032,0.00,VWS V14.01,2013-05-17 14:19:00,
2013-05-17 07:24:00,62.2,53.9,29.44,SSE,158,0.9,0.9,74,0.00,,OVC032,0.00,VWS V14.01,2013-05-17 14:24:00,
2013-05-17 07:29:00,62.4,54.0,29.44,SSE,158,0.9,0.9,74,0.00,,OVC032,0.00,VWS V14.01,2013-05-17 14:29:00,
2013-05-17 07:34:00,62.6,54.2,29.44,SSE,158,0.9,0.9,74,0.00,,OVC032,0.00,VWS V14.01,2013-05-17 14:34:00,
2013-05-17 07:39:00,63.0,54.9,29.44,SSE,158,0.9,0.9,75,0.00,,OVC032,0.00,VWS V14.01,2013-05-17 14:39:00,
2013-05-17 07:44:00,63.0,54.9,29.44,SSE,158,0.9,0.9,75,0.00,,OVC032,0.00,VWS V14.01,2013-05-17 14:44:00,
2013-05-17 07:49:00,63.1,55.5,29.44,SSE,158,0.9,0.9,76,0.00,,OVC032,0.00,VWS V14.01,2013-05-17 14:49:00,
2013-05-17 07:54:00,63.7,56.0,29.44,SSE,158,0.9,0.9,76,0.00,,OVC032,0.00,VWS V14.01,2013-05-17 14:54:00,
2013-05-17 07:59:00,64.2,56.9,29.44,SSE,158,0.9,0.9,77,0.00,,OVC032,0.00,VWS V14.01,2013-05-17 14:59:00,
2013-05-17 08:04:00,64.6,56.5,29.44,SSE,158,0.9,0.9,75,0.00,,BKN200,0.00,VWS V14.01,2013-05-17 15:04:00,
2013-05-17 08:09:00,64.8,55.5,29.44,SSE,158,0.9,0.9,72,0.00,,BKN200,0.00,VWS V14.01,2013-05-17 15:09:00,
2013-05-17 08:14:00,64.9,55.7,29.41,SSE,158,0.9,0.9,72,0.00,,BKN200,0.00,VWS V14.01,2013-05-17 15:14:00,
2013-05-17 08:19:00,65.3,56.0,29.41,SSE,158,0.9,0.9,72,0.00,,BKN200,0.00,VWS V14.01,2013-05-17 15:19:00,
2013-05-17 08:24:00,65.8,56.2,29.41,SSE,158,0.9,0.9,71,0.00,,BKN200,0.00,VWS V14.01,2013-05-17 15:24:00,
2013-05-17 08:29:00,66.6,56.5,29.44,SSE,158,0.9,0.9,70,0.00,,BKN200,0.00,VWS V14.01,2013-05-17 15:29:00,
2013-05-17 08:34:00,67.1,56.6,29.44,SSE,158,0.9,0.9,69,0.00,,BKN200,0.00,VWS V14.01,2013-05-17 15:34:00,
2013-05-17 08:39:00,67.3,56.0,29.44,SSE,158,0.9,0.9,67,0.00,,BKN200,0.00,VWS V14.01,2013-05-17 15:39:00,
2013-05-17 08:44:00,68.0,56.2,29.44,SSE,158,0.9,0.9,66,0.00,,BKN200,0.00,VWS V14.01,2013-05-17 15:44:00,
2013-05-17 08:49:00,68.7,56.5,29.44,SSE,158,0.9,0.9,65,0.00,,BKN034,0.00,VWS V14.01,2013-05-17 15:49:00,
2013-05-17 08:54:00,69.3,57.0,29.44,SSE,158,0.9,0.9,65,0.00,,BKN034,0.00,VWS V14.01,2013-05-17 15:54:00,
2013-05-17 08:59:00,69.4,56.3,29.44,SSE,158,0.9,0.9,63,0.00,,BKN034,0.00,VWS V14.01,2013-05-17 15:59:00,
2013-05-17 09:04:00,70.2,56.5,29.44,SSE,158,0.9,0.9,62,0.00,,BKN034,0.00,VWS V14.01,2013-05-17 16:04:00,
2013-05-17 09:09:00,71.4,58.2,29.44,SSE,158,0.9,0.9,63,0.00,,BKN034,0.00,VWS V14.01,2013-05-17 16:09:00,
2013-05-17 09:14:00,72.3,56.7,29.44,SSE,158,0.9,0.9,58,0.00,,BKN034,0.00,VWS V14.01,2013-05-17 16:14:00,
2013-05-17 09:19:00,73.0,56.9,29.44,SSE,158,0.9,0.9,57,0.00,,BKN034,0.00,VWS V14.01,2013-05-17 16:19:00,
2013-05-17 09:24:00,73.0,55.9,29.44,SSE,158,0.9,0.9,55,0.00,,BKN034,0.00,VWS V14.01,2013-05-17 16:24:00,
2013-05-17 09:29:00,72.7,54.6,29.44,SSE,158,0.9,0.9,53,0.00,,BKN034,0.00,VWS V14.01,2013-05-17 16:29:00,
2013-05-17 09:34:00,72.9,54.8,29.44,SSE,158,0.9,0.9,53,0.00,,BKN034,0.00,VWS V14.01,2013-05-17 16:34:00,
2013-05-17 09:39:00,74.8,56.0,29.44,SSE,158,0.9,0.9,52,0.00,,BKN034,0.00,VWS V14.01,2013-05-17 16:39:00,
2013-05-17 09:44:00,75.2,54.8,29.44,SSE,158,0.9,0.9,49,0.00,,BKN034,0.00,VWS V14.01,2013-05-17 16:44:00,
2013-05-17 09:49:00,75.0,53.4,29.44,SSE,158,0.9,0.9,47,0.00,,BKN034,0.00,VWS V14.01,2013-05-17 16:49:00,
2013-05-17 09:54:00,74.5,53.0,29.44,SSE,158,0.9,0.9,47,0.00,,BKN034,0.00,VWS V14.01,2013-05-17 16:54:00,
2013-05-17 09:59:00,74.8,54.4,29.44,SSE,158,0.9,0.9,49,0.00,,BKN034,0.00,VWS V14.01,2013-05-17 16:59:00,
2013-05-17 10:04:00,75.0,53.4,29.44,SSE,158,0.9,0.9,47,0.00,,BKN034,0.00,VWS V14.01,2013-05-17 17:04:00,
2013-05-17 10:09:00,74.5,53.0,29.44,SSE,158,0.9,0.9,47,0.00,,BKN034,0.00,VWS V14.01,2013-05-17 17:09:00,
2013-05-17 10:14:00,76.1,54.4,29.44,SSE,158,0.9,0.9,47,0.00,,BKN034,0.00,VWS V14.01,2013-05-17 17:14:00,
2013-05-17 10:19:00,77.2,54.2,29.44,SSE,158,0.9,0.9,45,0.00,,BKN034,0.00,VWS V14.01,2013-05-17 17:19:00,
2013-05-17 10:24:00,77.4,53.8,29.44,SSE,158,0.9,0.9,44,0.00,,BKN034,0.00,VWS V14.01,2013-05-17 17:24:00,
2013-05-17 10:29:00,78.1,53.8,29.47,SSE,158,0.9,0.9,43,0.00,,BKN034,0.00,VWS V14.01,2013-05-17 17:29:00,
2013-05-17 10:34:00,78.4,54.1,29.47,SSE,158,0.9,0.9,43,0.00,,BKN034,0.00,VWS V14.01,2013-05-17 17:34:00,
2013-05-17 10:39:00,78.3,54.0,29.47,SSE,158,0.9,0.9,43,0.00,,BKN034,0.00,VWS V14.01,2013-05-17 17:39:00,
2013-05-17 10:44:00,78.8,53.8,29.47,SSE,158,0.9,0.9,42,0.00,,BKN034,0.00,VWS V14.01,2013-05-17 17:44:00,
2013-05-17 10:49:00,80.1,54.3,29.47,SSE,158,0.9,0.9,41,0.00,,BKN034,0.00,VWS V14.01,2013-05-17 17:49:00,
2013-05-17 10:54:00,79.7,53.9,29.47,SSE,158,0.9,0.9,41,0.00,,BKN034,0.00,VWS V14.01,2013-05-17 17:54:00,
2013-05-17 10:59:00,79.9,53.4,29.47,SSE,158,0.9,0.9,40,0.00,,BKN034,0.00,VWS V14.01,2013-05-17 17:59:00,
2013-05-17 11:04:00,80.6,54.1,29.47,SSE,158,0.9,0.9,40,0.00,,BKN030,0.00,VWS V14.01,2013-05-17 18:04:00,
2013-05-17 11:09:00,81.1,53.9,29.47,SSE,158,0.9,0.9,39,0.00,,BKN030,0.00,VWS V14.01,2013-05-17 18:09:00,
2013-05-17 11:14:00,81.0,53.0,29.47,SSE,158,0.9,0.9,38,0.00,,BKN030,0.00,VWS V14.01,2013-05-17 18:14:00,
2013-05-17 11:19:00,81.5,54.2,29.47,SSE,158,0.9,0.9,39,0.00,,BKN030,0.00,VWS V14.01,2013-05-17 18:19:00,
2013-05-17 11:24:00,81.9,54.5,29.47,SSE,158,0.9,0.9,39,0.00,,BKN030,0.00,VWS V14.01,2013-05-17 18:24:00,
2013-05-17 11:29:00,81.5,54.2,29.47,SSE,158,0.9,0.9,39,0.00,,BKN030,0.00,VWS V14.01,2013-05-17 18:29:00,
2013-05-17 11:34:00,79.7,51.9,29.47,SSE,158,0.9,0.9,38,0.00,,BKN030,0.00,VWS V14.01,2013-05-17 18:34:00,
2013-05-17 11:39:00,79.9,53.4,29.47,SSE,158,0.9,0.9,40,0.00,,BKN030,0.00,VWS V14.01,2013-05-17 18:39:00,
2013-05-17 11:44:00,79.5,52.4,29.44,SSE,158,0.9,0.9,39,0.00,,BKN030,0.00,VWS V14.01,2013-05-17 18:44:00,
2013-05-17 11:49:00,79.5,53.1,29.44,SSE,158,0.9,0.9,40,0.00,,BKN030,0.00,VWS V14.01,2013-05-17 18:49:00,
2013-05-17 11:54:00,78.8,52.5,29.44,SSE,158,0.9,0.9,40,0.00,,BKN030,0.00,VWS V14.01,2013-05-17 18:54:00,
2013-05-17 11:59:00,78.8,52.5,29.47,SSE,158,0.9,0.9,40,0.00,,BKN030,0.00,VWS V14.01,2013-05-17 18:59:00,
2013-05-17 12:04:00,78.8,52.5,29.47,SSE,158,0.9,0.9,40,0.00,,SCT030,0.00,VWS V14.01,2013-05-17 19:04:00,
2013-05-17 12:09:00,78.8,52.5,29.47,SSE,158,0.9,0.9,40,0.00,,SCT030,0.00,VWS V14.01,2013-05-17 19:09:00,
2013-05-17 12:14:00,78.8,52.5,29.47,SSE,158,0.9,0.9,40,0.00,,SCT030,0.00,VWS V14.01,2013-05-17 19:14:00,
2013-05-17 12:19:00,76.3,52.8,29.47,SSE,158,0.9,0.9,44,0.00,,SCT030,0.00,VWS V14.01,2013-05-17 19:19:00,
2013-05-17 12:24:00,78.4,54.1,29.47,SSE,158,0.9,0.9,43,0.00,,SCT030,0.00,VWS V14.01,2013-05-17 19:24:00,
2013-05-17 12:29:00,77.5,53.9,29.47,SSE,158,0.9,0.9,44,0.00,,SCT030,0.00,VWS V14.01,2013-05-17 19:29:00,
2013-05-17 12:34:00,77.4,53.8,29.47,SSE,158,0.9,0.9,44,0.00,,SCT030,0.00,VWS V14.01,2013-05-17 19:34:00,
2013-05-17 12:39:00,76.6,53.1,29.47,SSE,158,0.9,0.9,44,0.00,,SCT030,0.00,VWS V14.01,2013-05-17 19:39:00,
2013-05-17 12:44:00,76.5,53.0,29.47,SSE,158,0.9,0.9,44,0.00,,SCT030,0.00,VWS V14.01,2013-05-17 19:44:00,
2013-05-17 12:49:00,76.5,53.0,29.47,SSE,158,0.9,0.9,44,0.00,,SCT030,0.00,VWS V14.01,2013-05-17 19:49:00,
2013-05-17 12:54:00,76.5,53.0,29.47,SSE,158,0.9,0.9,44,0.00,,SCT030,0.00,VWS V14.01,2013-05-17 19:54:00,
2013-05-17 12:59:00,75.7,52.9,29.44,SSE,158,0.9,0.9,45,0.00,,SCT030,0.00,VWS V14.01,2013-05-17 19:59:00,
2013-05-17 13:04:00,77.2,54.2,29.44,SSE,158,0.9,0.9,45,0.00,,BKN032,0.00,VWS V14.01,2013-05-17 20:04:00,
2013-05-17 13:09:00,78.4,55.4,29.44,SSE,158,0.9,0.9,45,0.00,,BKN032,0.00,VWS V14.01,2013-05-17 20:09:00,
2013-05-17 13:14:00,79.5,55.7,29.44,SSE,158,0.9,0.9,44,0.00,,BKN032,0.00,VWS V14.01,2013-05-17 20:14:00,
2013-05-17 13:19:00,79.7,54.6,29.44,SSE,158,0.9,0.9,42,0.00,,BKN032,0.00,VWS V14.01,2013-05-17 20:19:00,
2013-05-17 13:24:00,80.2,55.1,29.44,SSE,158,0.9,0.9,42,0.00,,BKN032,0.00,VWS V14.01,2013-05-17 20:24:00,
2013-05-17 13:29:00,79.7,53.9,29.44,SSE,158,0.9,0.9,41,0.00,,BKN032,0.00,VWS V14.01,2013-05-17 20:29:00,
2013-05-17 13:35:00,80.6,54.1,29.44,SSE,158,0.9,0.9,40,0.00,,BKN032,0.00,VWS V14.01,2013-05-17 20:35:00,
2013-05-17 13:40:00,79.3,53.0,29.44,SSE,158,0.9,0.9,40,0.00,,BKN032,0.00,VWS V14.01,2013-05-17 20:40:00,
2013-05-17 13:45:00,79.3,53.0,29.44,SSE,158,0.9,0.9,40,0.00,,BKN032,0.00,VWS V14.01,2013-05-17 20:45:00,
2013-05-17 13:50:00,79.7,53.9,29.44,SSE,158,0.9,0.9,41,0.00,,BKN032,0.00,VWS V14.01,2013-05-17 20:50:00,
2013-05-17 13:55:00,80.8,54.2,29.44,SSE,158,0.9,0.9,40,0.00,,BKN032,0.00,VWS V14.01,2013-05-17 20:55:00,
2013-05-17 14:00:00,80.8,53.5,29.44,SSE,158,0.9,0.9,39,0.00,,BKN032,0.00,VWS V14.01,2013-05-17 21:00:00,
2013-05-17 14:05:00,80.8,53.5,29.44,SSE,158,0.9,0.9,39,0.00,,SCT028,0.00,VWS V14.01,2013-05-17 21:05:00,
2013-05-17 14:10:00,80.4,53.2,29.44,SSE,158,0.9,0.9,39,0.00,,SCT028,0.00,VWS V14.01,2013-05-17 21:10:00,
2013-05-17 14:15:00,81.0,51.5,29.44,SSE,158,0.9,0.9,36,0.00,,SCT028,0.00,VWS V14.01,2013-05-17 21:15:00,
2013-05-17 14:20:00,80.6,52.0,29.44,SSE,158,0.9,0.9,37,0.00,,SCT028,0.00,VWS V14.01,2013-05-17 21:20:00,
2013-05-17 14:25:00,80.4,52.5,29.44,SSE,158,0.9,0.9,38,0.00,,SCT028,0.00,VWS V14.01,2013-05-17 21:25:00,
2013-05-17 14:30:00,80.1,52.2,29.44,SSE,158,0.9,0.9,38,0.00,,SCT028,0.00,VWS V14.01,2013-05-17 21:30:00,
2013-05-17 14:35:00,80.1,52.2,29.44,SSE,158,0.9,0.9,38,0.00,,SCT028,0.00,VWS V14.01,2013-05-17 21:35:00,
2013-05-17 14:40:00,80.1,52.2,29.44,SSE,158,0.9,0.9,38,0.00,,SCT028,0.00,VWS V14.01,2013-05-17 21:40:00,
2013-05-17 14:45:00,82.2,54.1,29.44,SSE,158,0.9,0.9,38,0.00,,SCT028,0.00,VWS V14.01,2013-05-17 21:45:00,
2013-05-17 14:50:00,80.8,51.4,29.44,SSE,158,0.9,0.9,36,0.00,,SCT028,0.00,VWS V14.01,2013-05-17 21:50:00,
2013-05-17 14:55:00,82.0,52.5,29.44,SSE,158,0.9,0.9,36,0.00,,SCT028,0.00,VWS V14.01,2013-05-17 21:55:00,
2013-05-17 15:00:00,81.7,52.2,29.44,SSE,158,0.9,0.9,36,0.00,,SCT028,0.00,VWS V14.01,2013-05-17 22:00:00,
2013-05-17 15:05:00,81.9,52.3,29.44,SSE,158,0.9,0.9,36,0.00,,SCT028,0.00,VWS V14.01,2013-05-17 22:05:00,
2013-05-17 15:10:00,82.0,51.7,29.44,SSE,158,0.9,0.9,35,0.00,,SCT028,0.00,VWS V14.01,2013-05-17 22:10:00,
2013-05-17 15:15:00,83.1,52.7,29.44,SSE,158,0.9,0.9,35,0.00,,SCT028,0.00,VWS V14.01,2013-05-17 22:15:00,
2013-05-17 15:20:00,80.8,49.8,29.44,SSE,158,0.9,0.9,34,0.00,,SCT028,0.00,VWS V14.01,2013-05-17 22:20:00,
2013-05-17 15:25:00,81.5,52.0,29.44,SSE,158,0.9,0.9,36,0.00,,SCT028,0.00,VWS V14.01,2013-05-17 22:25:00,
2013-05-17 15:30:00,80.4,51.0,29.44,SSE,158,0.9,0.9,36,0.00,,SCT028,0.00,VWS V14.01,2013-05-17 22:30:00,
2013-05-17 15:35:00,79.3,50.1,29.44,SSE,158,0.9,0.9,36,0.00,,SCT028,0.00,VWS V14.01,2013-05-17 22:35:00,
2013-05-17 15:40:00,79.7,51.2,29.44,SSE,158,0.9,0.9,37,0.00,,SCT028,0.00,VWS V14.01,2013-05-17 22:40:00,
2013-05-17 15:45:00,79.7,51.2,29.44,SSE,158,0.9,0.9,37,0.00,,SCT028,0.00,VWS V14.01,2013-05-17 22:45:00,
2013-05-17 15:50:00,79.3,50.8,29.44,SSE,158,0.9,0.9,37,0.00,,SCT028,0.00,VWS V14.01,2013-05-17 22:50:00,
2013-05-17 15:55:00,80.1,52.2,29.44,SSE,158,0.9,0.9,38,0.00,,SCT028,0.00,VWS V14.01,2013-05-17 22:55:00,
2013-05-17 16:00:00,80.8,52.8,29.44,SSE,158,0.9,0.9,38,0.00,,SCT028,0.00,VWS V14.01,2013-05-17 23:00:00,
2013-05-17 16:05:00,81.7,52.9,29.44,SSE,158,0.9,0.9,37,0.00,,SCT028,0.00,VWS V14.01,2013-05-17 23:05:00,
2013-05-17 16:10:00,81.0,51.5,29.44,SSE,158,0.9,0.9,36,0.00,,SCT028,0.00,VWS V14.01,2013-05-17 23:10:00,
2013-05-17 16:15:00,81.0,51.5,29.44,SSE,158,0.9,0.9,36,0.00,,SCT028,0.00,VWS V14.01,2013-05-17 23:15:00,
2013-05-17 16:20:00,81.5,52.0,29.44,SSE,158,0.9,0.9,36,0.00,,SCT028,0.00,VWS V14.01,2013-05-17 23:20:00,
2013-05-17 16:25:00,81.3,51.8,29.44,SSE,158,0.9,0.9,36,0.00,,SCT028,0.00,VWS V14.01,2013-05-17 23:25:00,
2013-05-17 16:30:00,81.1,51.7,29.44,SSE,158,0.9,0.9,36,0.00,,SCT028,0.00,VWS V14.01,2013-05-17 23:30:00,
2013-05-17 16:35:00,81.3,51.8,29.44,SSE,158,0.9,0.9,36,0.00,,SCT028,0.00,VWS V14.01,2013-05-17 23:35:00,
2013-05-17 16:40:00,80.8,51.4,29.44,SSE,158,0.9,0.9,36,0.00,,SCT028,0.00,VWS V14.01,2013-05-17 23:40:00,
2013-05-17 16:45:00,80.8,51.4,29.41,SSE,158,0.9,0.9,36,0.00,,SCT028,0.00,VWS V14.01,2013-05-17 23:45:00,
2013-05-17 16:50:00,79.9,51.3,29.41,SSE,158,0.9,0.9,37,0.00,,SCT028,0.00,VWS V14.01,2013-05-17 23:50:00,
2013-05-17 16:55:00,79.7,51.2,29.41,SSE,158,0.9,0.9,37,0.00,,SCT028,0.00,VWS V14.01,2013-05-17 23:55:00,
2013-05-17 17:00:00,80.2,51.6,29.44,SSE,158,0.9,0.9,37,0.00,,SCT028,0.00,VWS V14.01,2013-05-18 00:00:00,
2013-05-17 17:05:00,80.4,52.5,29.44,SSE,158,0.9,0.9,38,0.00,,SCT028,0.00,VWS V14.01,2013-05-18 00:05:00,
2013-05-17 17:10:00,80.1,52.2,29.44,SSE,158,0.9,0.9,38,0.00,,SCT028,0.00,VWS V14.01,2013-05-18 00:10:00,
2013-05-17 17:15:00,79.7,51.2,29.44,SSE,158,0.9,0.9,37,0.00,,SCT028,0.00,VWS V14.01,2013-05-18 00:15:00,
2013-05-17 17:20:00,79.0,51.2,29.44,SSE,158,0.9,0.9,38,0.00,,SCT028,0.00,VWS V14.01,2013-05-18 00:20:00,
2013-05-17 17:25:00,78.6,50.9,29.44,SSE,158,0.9,0.9,38,0.00,,SCT028,0.00,VWS V14.01,2013-05-18 00:25:00,
2013-05-17 17:30:00,79.0,51.2,29.44,SSE,158,0.9,0.9,38,0.00,,SCT028,0.00,VWS V14.01,2013-05-18 00:30:00,
2013-05-17 17:35:00,78.3,51.3,29.44,SSE,158,0.9,0.9,39,0.00,,SCT028,0.00,VWS V14.01,2013-05-18 00:35:00,
2013-05-17 17:40:00,78.1,51.1,29.44,SSE,158,0.9,0.9,39,0.00,,SCT028,0.00,VWS V14.01,2013-05-18 00:40:00,
2013-05-17 17:45:00,77.5,51.3,29.41,SSE,158,0.9,0.9,40,0.00,,SCT028,0.00,VWS V14.01,2013-05-18 00:45:00,
2013-05-17 17:50:00,77.7,51.5,29.41,SSE,158,0.9,0.9,40,0.00,,SCT028,0.00,VWS V14.01,2013-05-18 00:50:00,
2013-05-17 17:55:00,77.7,52.2,29.41,SSE,158,0.9,0.9,41,0.00,,SCT028,0.00,VWS V14.01,2013-05-18 00:55:00,
2013-05-17 18:00:00,77.0,50.9,29.41,SSE,158,0.9,0.9,40,0.00,,FEW028,0.00,VWS V14.01,2013-05-18 01:00:00,
2013-05-17 18:05:00,77.4,51.8,29.41,SSE,158,0.9,0.9,41,0.00,,FEW028,0.00,VWS V14.01,2013-05-18 01:05:00,
2013-05-17 18:10:00,77.5,52.0,29.41,SSE,158,0.9,0.9,41,0.00,,FEW028,0.00,VWS V14.01,2013-05-18 01:10:00,
2013-05-17 18:15:00,76.5,51.0,29.44,SSE,158,0.9,0.9,41,0.00,,FEW028,0.00,VWS V14.01,2013-05-18 01:15:00,
2013-05-17 18:20:00,75.4,49.4,29.44,SSE,158,0.9,0.9,40,0.00,,FEW028,0.00,VWS V14.01,2013-05-18 01:20:00,
2013-05-17 18:25:00,75.4,50.1,29.44,SSE,158,0.9,0.9,41,0.00,,FEW028,0.00,VWS V14.01,2013-05-18 01:25:00,
2013-05-17 18:30:00,74.8,49.6,29.44,SSE,158,0.9,0.9,41,0.00,,FEW028,0.00,VWS V14.01,2013-05-18 01:30:00,
2013-05-17 18:35:00,73.2,49.4,29.44,SSE,158,0.9,0.9,43,0.00,,FEW028,0.00,VWS V14.01,2013-05-18 01:35:00,
2013-05-17 18:40:00,72.5,48.8,29.44,SSE,158,0.9,0.9,43,0.00,,FEW028,0.00,VWS V14.01,2013-05-18 01:40:00,
2013-05-17 18:45:00,72.0,49.5,29.44,SSE,158,0.9,0.9,45,0.00,,FEW028,0.00,VWS V14.01,2013-05-18 01:45:00,
2013-05-17 18:50:00,71.4,49.6,29.44,SSE,158,0.9,0.9,46,0.00,,FEW028,0.00,VWS V14.01,2013-05-18 01:50:00,
2013-05-17 18:55:00,70.9,49.7,29.44,SSE,158,0.9,0.9,47,0.00,,FEW028,0.00,VWS V14.01,2013-05-18 01:55:00,
2013-05-17 19:00:00,70.2,50.1,29.44,SSE,158,0.9,0.9,49,0.00,,SCT032,0.00,VWS V14.01,2013-05-18 02:00:00,
2013-05-17 19:05:00,69.8,50.3,29.44,SSE,158,0.9,0.9,50,0.00,,SCT032,0.00,VWS V14.01,2013-05-18 02:05:00,
2013-05-17 19:10:00,69.3,50.9,29.44,SSE,158,0.9,0.9,52,0.00,,SCT032,0.00,VWS V14.01,2013-05-18 02:10:00,
2013-05-17 19:15:00,69.3,50.9,29.41,SSE,158,0.9,0.9,52,0.00,,SCT032,0.00,VWS V14.01,2013-05-18 02:15:00,
2013-05-17 19:20:00,68.2,51.4,29.41,SSE,158,0.9,0.9,55,0.00,,SCT032,0.00,VWS V14.01,2013-05-18 02:20:00,
2013-05-17 19:25:00,68.2,52.4,29.41,SSE,158,0.9,0.9,57,0.00,,SCT032,0.00,VWS V14.01,2013-05-18 02:25:00,
2013-05-17 19:30:00,67.6,53.3,29.44,SSE,158,0.9,0.9,60,0.00,,SCT032,0.00,VWS V14.01,2013-05-18 02:30:00,
2013-05-17 19:35:00,67.6,53.3,29.44,SSE,158,0.9,0.9,60,0.00,,SCT032,0.00,VWS V14.01,2013-05-18 02:35:00,
2013-05-17 19:40:00,67.6,53.3,29.44,SSE,158,0.9,0.9,60,0.00,,SCT032,0.00,VWS V14.01,2013-05-18 02:40:00,
2013-05-17 19:45:00,66.0,53.1,29.44,SSE,158,0.9,0.9,63,0.00,,SCT032,0.00,VWS V14.01,2013-05-18 02:45:00,
2013-05-17 19:50:00,65.5,53.4,29.44,SSE,158,0.9,0.9,65,0.00,,SCT032,0.00,VWS V14.01,2013-05-18 02:50:00,
2013-05-17 19:55:00,65.5,53.4,29.44,SSE,158,0.9,0.9,65,0.00,,SCT032,0.00,VWS V14.01,2013-05-18 02:55:00,
2013-05-17 20:00:00,65.1,53.9,29.44,SSE,158,0.9,0.9,67,0.00,,FEW030,0.00,VWS V14.01,2013-05-18 03:00:00,
2013-05-17 20:05:00,65.1,53.9,29.44,SSE,158,0.9,0.9,67,0.00,,FEW030,0.00,VWS V14.01,2013-05-18 03:05:00,
2013-05-17 20:11:00,64.2,55.0,29.44,SSE,158,0.9,0.9,72,0.00,,FEW030,0.00,VWS V14.01,2013-05-18 03:11:00,
2013-05-17 20:15:00,63.9,54.7,29.44,SSE,158,0.9,0.9,72,0.00,,FEW030,0.00,VWS V14.01,2013-05-18 03:15:00,
2013-05-17 20:21:00,63.7,54.1,29.44,SSE,158,0.9,0.9,71,0.00,,FEW030,0.00,VWS V14.01,2013-05-18 03:21:00,
2013-05-17 20:26:00,63.5,54.7,29.44,SSE,158,0.9,0.9,73,0.00,,FEW030,0.00,VWS V14.01,2013-05-18 03:26:00,
2013-05-17 20:31:00,63.1,54.7,29.47,SSE,158,0.9,0.9,74,0.00,,FEW030,0.00,VWS V14.01,2013-05-18 03:31:00,
2013-05-17 20:36:00,63.0,55.3,29.47,SSE,158,0.9,0.9,76,0.00,,FEW030,0.00,VWS V14.01,2013-05-18 03:36:00,
2013-05-17 20:41:00,63.0,54.9,29.47,SSE,158,0.9,0.9,75,0.00,,FEW030,0.00,VWS V14.01,2013-05-18 03:41:00,
2013-05-17 20:46:00,63.0,54.9,29.47,SSE,158,0.9,0.9,75,0.00,,FEW030,0.00,VWS V14.01,2013-05-18 03:46:00,
2013-05-17 20:51:00,63.0,54.9,29.47,SSE,158,0.9,0.9,75,0.00,,FEW030,0.00,VWS V14.01,2013-05-18 03:51:00,
2013-05-17 20:56:00,63.0,54.9,29.47,SSE,158,0.9,0.9,75,0.00,,FEW030,0.00,VWS V14.01,2013-05-18 03:56:00,
2013-05-17 21:01:00,63.1,55.5,29.47,SSE,158,0.9,0.9,76,0.00,,CLR,0.00,VWS V14.01,2013-05-18 04:01:00,
2013-05-17 21:06:00,63.1,55.5,29.47,SSE,158,0.9,0.9,76,0.00,,CLR,0.00,VWS V14.01,2013-05-18 04:06:00,
2013-05-17 21:11:00,63.1,55.5,29.47,SSE,158,0.9,0.9,76,0.00,,CLR,0.00,VWS V14.01,2013-05-18 04:11:00,
2013-05-17 21:16:00,63.3,55.6,29.47,SSE,158,0.9,0.9,76,0.00,,CLR,0.00,VWS V14.01,2013-05-18 04:16:00,
2013-05-17 21:21:00,63.3,55.6,29.47,SSE,158,0.9,0.9,76,0.00,,CLR,0.00,VWS V14.01,2013-05-18 04:21:00,
2013-05-17 21:26:00,63.3,55.6,29.47,SSE,158,0.9,0.9,76,0.00,,CLR,0.00,VWS V14.01,2013-05-18 04:26:00,
2013-05-17 21:31:00,63.3,55.6,29.47,SSE,158,0.9,0.9,76,0.00,,CLR,0.00,VWS V14.01,2013-05-18 04:31:00,
2013-05-17 21:36:00,63.3,55.6,29.47,SSE,158,0.9,0.9,76,0.00,,CLR,0.00,VWS V14.01,2013-05-18 04:36:00,
2013-05-17 21:41:00,63.3,55.6,29.47,SSE,158,0.9,0.9,76,0.00,,CLR,0.00,VWS V14.01,2013-05-18 04:41:00,
2013-05-17 21:46:00,63.3,55.6,29.47,SSE,158,0.9,0.9,76,0.00,,CLR,0.00,VWS V14.01,2013-05-18 04:46:00,
2013-05-17 21:51:00,63.3,55.6,29.47,SSE,158,0.9,0.9,76,0.00,,CLR,0.00,VWS V14.01,2013-05-18 04:51:00,
2013-05-17 21:56:00,63.3,55.6,29.47,SSE,158,0.9,0.9,76,0.00,,CLR,0.00,VWS V14.01,2013-05-18 04:56:00,
2013-05-17 22:01:00,63.3,55.6,29.47,SSE,158,0.9,0.9,76,0.00,,BKN018,0.00,VWS V14.01,2013-05-18 05:01:00,
2013-05-17 22:06:00,63.1,55.1,29.47,SSE,158,0.9,0.9,75,0.00,,BKN018,0.00,VWS V14.01,2013-05-18 05:06:00,
2013-05-17 22:11:00,63.1,55.1,29.47,SSE,158,0.9,0.9,75,0.00,,BKN018,0.00,VWS V14.01,2013-05-18 05:11:00,
2013-05-17 22:16:00,63.1,55.1,29.47,SSE,158,0.9,0.9,75,0.00,,BKN018,0.00,VWS V14.01,2013-05-18 05:16:00,
2013-05-17 22:21:00,63.1,55.1,29.47,SSE,158,0.9,0.9,75,0.00,,BKN018,0.00,VWS V14.01,2013-05-18 05:21:00,
2013-05-17 22:26:00,63.1,54.7,29.47,SSE,158,0.9,0.9,74,0.00,,BKN018,0.00,VWS V14.01,2013-05-18 05:26:00,
2013-05-17 22:31:00,63.1,54.7,29.50,SSE,158,0.9,0.9,74,0.00,,BKN018,0.00,VWS V14.01,2013-05-18 05:31:00,
2013-05-17 22:36:00,63.1,54.7,29.50,SSE,158,0.9,0.9,74,0.00,,BKN018,0.00,VWS V14.01,2013-05-18 05:36:00,
2013-05-17 22:41:00,63.1,54.7,29.50,SSE,158,0.9,0.9,74,0.00,,BKN018,0.00,VWS V14.01,2013-05-18 05:41:00,
2013-05-17 22:46:00,63.1,54.7,29.50,SSE,158,0.9,0.9,74,0.00,,BKN018,0.00,VWS V14.01,2013-05-18 05:46:00,
2013-05-17 22:51:00,63.1,55.1,29.50,SSE,158,0.9,0.9,75,0.00,,BKN018,0.00,VWS V14.01,2013-05-18 05:51:00,
2013-05-17 22:56:00,63.1,55.1,29.50,SSE,158,0.9,0.9,75,0.00,,BKN018,0.00,VWS V14.01,2013-05-18 05:56:00,
2013-05-17 23:01:00,63.1,55.1,29.50,SSE,158,0.9,0.9,75,0.00,,BKN020,0.00,VWS V14.01,2013-05-18 06:01:00,
2013-05-17 23:06:00,63.1,54.7,29.50,SSE,158,0.9,0.9,74,0.00,,BKN020,0.00,VWS V14.01,2013-05-18 06:06:00,
2013-05-17 23:11:00,63.1,54.7,29.50,SSE,158,0.9,0.9,74,0.00,,BKN020,0.00,VWS V14.01,2013-05-18 06:11:00,
2013-05-17 23:16:00,63.1,54.7,29.50,SSE,158,0.9,0.9,74,0.00,,BKN020,0.00,VWS V14.01,2013-05-18 06:16:00,
2013-05-17 23:21:00,63.1,54.7,29.50,SSE,158,0.9,0.9,74,0.00,,BKN020,0.00,VWS V14.01,2013-05-18 06:21:00,
2013-05-17 23:26:00,63.0,56.0,29.50,SSE,158,0.9,0.9,78,0.00,,BKN020,0.00,VWS V14.01,2013-05-18 06:26:00,
2013-05-17 23:31:00,62.6,56.3,29.50,SSE,158,0.9,0.9,80,0.00,,BKN020,0.00,VWS V14.01,2013-05-18 06:31:00,
2013-05-17 23:36:00,62.6,56.3,29.50,SSE,158,0.9,0.9,80,0.00,,BKN020,0.00,VWS V14.01,2013-05-18 06:36:00,
2013-05-17 23:41:00,62.6,56.3,29.50,SSE,158,0.9,0.9,80,0.00,,BKN020,0.00,VWS V14.01,2013-05-18 06:41:00,
2013-05-17 23:46:00,62.4,56.9,29.47,SSE,158,0.9,0.9,82,0.00,,BKN020,0.00,VWS V14.01,2013-05-18 06:46:00,
2013-05-17 23:51:00,62.4,56.9,29.47,SSE,158,0.9,0.9,82,0.00,,BKN020,0.00,VWS V14.01,2013-05-18 06:51:00,
2013-05-17 23:56:00,62.4,56.9,29.47,SSE,158,0.9,0.9,82,0.00,,BKN020,0.00,VWS V14.01,2013-05-18 06:56:00,